Regional Weather Roundup
Issued by NWS Sterling, VA

Home | Current Version | Previous Version | Graphics & Text | Print | Product List | Glossary On
Versions: 1 2 3 4 5 6 7 8 9 10 11 12 13 14 15 16 17 18 19 20 21 22 23 24 25 26 27 28 29 30 31 32 33 34 35 36 37 38 39 40 41 42 43 44 45 46 47 48 49 50
000
ASUS41 KLWX 301510
RWRLWX

REGIONAL WEATHER ROUNDUP
NATIONAL WEATHER SERVICE BALTIMORE MD/WASHINGTON DC
1100 AM EDT THU JUL 30 2015

Note: "FAIR" indicates few or no clouds below 12,000 feet
with no significant weather and/or obstructions to visibility.
 TC=TEMPERATURE CELSIUS

 * =Non NWS site. Station does not report precipitation (e.g. rain,
    snow, etc.), thunder, or fog.

DCZ001-MDZ009-015-VAZ040>042-051-053>054-301600-
WASHINGTON METRO

CITY           SKY/WX    TMP DP  RH WIND       PRES   REMARKS
WASHINGTON NAT PTSUNNY   88  76  67 S10G18    29.92R HX  99
DULLES         PTSUNNY   82  75  79 SW8       29.93R
ANDREWS AFB    MOSUNNY   86  73  66 SW13      29.92R HX  93
FT BELVOIR     MOSUNNY   84  75  73 SE8       29.92R HX  92
QUANTICO       PTSUNNY   89  73  60 S7        29.95R HX  96
COLLEGE PARK*  MOSUNNY   86  73  66 SW6       29.91S HX  93
LEESBURG*      MOSUNNY   88  79  74 SW12      29.93S HX 102
MANASSAS*      SUNNY     84  75  74 SW5       29.92S HX  92
GAITHERSBURG*  MOSUNNY   84  75  74 S6        29.96S HX  92

$$

MDZ006>007-011-014-301600-
BALTIMORE METRO

CITY           SKY/WX    TMP DP  RH WIND       PRES   REMARKS
BWI AIRPORT    PTSUNNY   85  74  69 S8        29.91R HX  92
MD SCIENCE CTR   N/A     86  73  65 MISG      29.90S HX  93
MARTIN STATE   PTSUNNY   84  77  79 SE8       29.92  HX  94
ANNAPOLIS      MOSUNNY   84  73  69 S7        29.91S HX  90
FORT MEADE*    MOSUNNY   82  73  74 SW8       29.94R

$$

MDZ012-015-019>023-301600-
MARYLAND EASTERN SHORE

CITY           SKY/WX    TMP DP  RH WIND       PRES   REMARKS
OCEAN CITY     MOSUNNY   83  73  72 SW12G17   29.96R
SALISBURY      MOSUNNY   84  74  71 SW8       29.95S HX  91
BAY BRIDGE AP*   N/A     82  72  69 S10       29.92S
CAMBRIDGE*     MOSUNNY   84  70  61 S10G16    29.94R
EASTON*        MOSUNNY   86  73  66 SW13      29.96S HX  93

$$

MDZ017>025-301600-
SOUTHERN MARYLAND

CITY           SKY/WX    TMP DP  RH WIND       PRES   REMARKS
PATUXENT RIVER PTSUNNY   83  73  72 S9        29.93S
ST INIGOES     MOSUNNY   83  72  69 S6        29.93F
LEONARDTOWN*   MOSUNNY   82  70  65 S5        29.95S

$$

MDZ003>005-301600-
NORTH CENTRAL MARYLAND

CITY           SKY/WX    TMP DP  RH WIND       PRES   REMARKS
FREDERICK*     SUNNY     86  79  79 SW8       29.94R HX  99
HAGERSTOWN APT PTSUNNY   84  72  67 W7        29.93R
WESTMINSTER*   MOSUNNY   82  79  89 SW6       29.93S HX  93

$$

MDZ501>502-301600-
WESTERN MARYLAND

CITY           SKY/WX    TMP DP  RH WIND       PRES   REMARKS
OAKLAND*       PTSUNNY   68 N/A N/A NW3       30.08S HAZE
CUMBERLAND*    CLOUDY    77  73  88 CALM      30.00R

$$

VAZ025>031-301600-
SHENANDOAH VALLEY

CITY           SKY/WX    TMP DP  RH WIND       PRES   REMARKS
WINCHESTER*    CLOUDY    86  73  66 SW6       29.95R HX  93
FRONT ROYAL*   CLOUDY    82  73  74 SW6       29.93S
LURAY*         PTSUNNY   84  75  74 SW6       29.96R HX  92
NEW MARKET*    CLOUDY    82  74  77 CALM      29.95R
STAUNTON*      PTSUNNY   85  73  67 SW7       30.00S HX  91
WAYNESBORO*    FAIR      79  72  78 W6        30.00S

$$

WVZ021-048>050-054>055-301600-
EASTERN WEST VIRGINIA PANHANDLE

CITY           SKY/WX    TMP DP  RH WIND       PRES   REMARKS
MARTINSBURG    PTSUNNY   84  71  65 W14       29.93R
PETERSBURG*    CLOUDY   N/A N/A N/A CALM      29.99R

$$

VAZ036>039-050-301600-
CENTRAL FOOTHILLS

CITY           SKY/WX    TMP DP  RH WIND       PRES   REMARKS
CHARLOTTESVILL MOSUNNY   86  76  71 S7        29.94S HX  96
CULPEPER*      MOSUNNY   84  76  76 CALM      29.94R HX  92
ORANGE*        MOSUNNY   86  77  74 S7        29.95S HX  97
GORDONSVILLE*  FAIR      82  75  78 S6        29.94R
WARRENTON*     FAIR      87  78  75 SW7       29.93R HX 100

$$

VAZ055>057-301600-
NORTH AND CENTRAL PIEDMONT

CITY           SKY/WX    TMP DP  RH WIND       PRES   REMARKS
FREDERICKSBRG* SUNNY     88  75  66 S9        29.92S HX  98
STAFFORD*      SUNNY     85  73  65 S7        29.97R HX  92

$$

NCZ024-NYZ072-PAZ021-071-VAZ022-071-301600-
OTHER REGIONAL OBSERVATIONS

CITY           SKY/WX    TMP DP  RH WIND       PRES   REMARKS
NEW YORK CITY  CLOUDY    81  71  71 SW8       29.92S
PHILADELPHIA   PTSUNNY   86  73  65 S13G23    29.90S HX  93
PITTSBURGH     PTSUNNY   81  55  40 NW10      29.99R
ROANOKE        PTSUNNY   79  71  76 W8        30.03S
RICHMOND       PTSUNNY   86  74  67 S8        29.95S HX  94
RALEIGH        MOSUNNY   87  72  60 SW5       29.98S HX  93

$$

ANZ530>537-301600-
MARINE OBSERVATIONS

STATION/POSITION TIME  TEMP    WIND        PRES
                       AIR SEA DIR/SP/G
                 (UTC) (F)     (DEG/KT/KT) (MB)
THOMAS PT LIGHT  NOT AVBL
BALT KEY BRIDGE  1400   80     160/  6/  8 1012.4F
COVE POINT       1400   81     220/ 11/ 15 1014.1F
LEWISETTA        1400   82 83  220/  9/ 11 1013.4F
SOLOMONS ISLAND  1400      83                N/A

$$



USA.gov is the U.S. government's official web portal to all federal, state and local government web resources and services.